Time,TemperatureF,DewpointF,PressureIn,WindDirection,WindDirectionDegrees,WindSpeedMPH,WindSpeedGustMPH,Humidity,HourlyPrecipIn,Conditions,Clouds,dailyrainin,SoftwareType,DateUTC
2013-10-18 00:14:00,64.0,61.0,29.69,SW,226,0.0,0.0,91,0.00,,,0.01,,2013-10-18 04:14:00,
2013-10-18 00:24:00,64.0,61.0,29.69,SW,226,0.0,0.0,91,0.00,,,0.01,,2013-10-18 04:24:00,
2013-10-18 00:43:00,64.0,62.0,29.69,SW,226,0.0,0.0,92,0.00,,,0.03,,2013-10-18 04:43:00,
2013-10-18 00:54:00,64.0,62.0,29.69,SW,226,0.0,0.0,92,0.00,,,0.03,,2013-10-18 04:54:00,
2013-10-18 01:13:00,64.0,62.0,29.68,SW,226,0.0,0.0,92,0.00,,,0.03,,2013-10-18 05:13:00,
2013-10-18 01:23:00,64.0,62.0,29.68,SW,226,0.0,0.0,92,0.00,,,0.03,,2013-10-18 05:23:00,
2013-10-18 01:43:00,64.0,61.0,29.69,SW,226,0.0,0.0,91,0.00,,,0.03,,2013-10-18 05:43:00,
2013-10-18 01:52:00,64.0,60.0,29.69,SW,226,0.0,0.0,88,0.00,,,0.03,,2013-10-18 05:52:00,
2013-10-18 02:12:00,64.0,59.0,29.69,SW,226,0.0,0.0,84,0.00,,,0.03,,2013-10-18 06:12:00,
2013-10-18 02:22:00,64.0,56.0,29.70,SW,226,0.0,0.0,75,0.00,,,0.03,,2013-10-18 06:22:00,
2013-10-18 02:42:00,64.0,56.0,29.71,SW,226,0.0,0.0,74,0.00,,,0.03,,2013-10-18 06:42:00,
2013-10-18 02:52:00,63.0,54.0,29.71,SW,226,0.0,0.0,73,0.00,,,0.03,,2013-10-18 06:52:00,
2013-10-18 03:11:00,63.0,54.0,29.71,SW,226,0.0,0.0,72,0.00,,,0.03,,2013-10-18 07:11:00,
2013-10-18 03:22:00,62.0,53.0,29.72,SW,226,0.0,0.0,72,0.00,,,0.03,,2013-10-18 07:22:00,
2013-10-18 03:42:00,62.0,53.0,29.72,SW,226,0.0,0.0,72,0.00,,,0.03,,2013-10-18 07:42:00,
2013-10-18 03:52:00,61.0,52.0,29.72,SW,226,0.0,0.0,72,0.00,,,0.03,,2013-10-18 07:52:00,
2013-10-18 04:11:00,61.0,52.0,29.73,NNW,335,0.0,0.0,73,0.00,,,0.03,,2013-10-18 08:11:00,
2013-10-18 04:22:00,60.0,51.0,29.75,NNW,335,0.0,0.0,73,0.00,,,0.03,,2013-10-18 08:22:00,
2013-10-18 04:42:00,60.0,51.0,29.75,NNW,335,0.0,0.0,73,0.00,,,0.03,,2013-10-18 08:42:00,
2013-10-18 04:52:00,59.0,51.0,29.75,NNW,335,0.0,0.0,75,0.00,,,0.03,,2013-10-18 08:52:00,
2013-10-18 05:12:00,59.0,51.0,29.75,NNW,335,0.0,0.0,76,0.00,,,0.03,,2013-10-18 09:12:00,
2013-10-18 05:22:00,58.0,50.0,29.76,NNW,335,0.0,0.0,74,0.00,,,0.03,,2013-10-18 09:22:00,
2013-10-18 05:53:00,57.0,48.0,29.77,NNW,335,0.0,0.0,72,0.00,,,0.03,,2013-10-18 09:53:00,
2013-10-18 06:12:00,57.0,47.0,29.78,NNW,335,0.0,0.0,69,0.00,,,0.03,,2013-10-18 10:12:00,
2013-10-18 06:23:00,57.0,47.0,29.78,NNW,335,0.0,0.0,69,0.00,,,0.03,,2013-10-18 10:23:00,
2013-10-18 06:43:00,56.0,46.0,29.79,NNW,335,0.0,0.0,69,0.00,,,0.03,,2013-10-18 10:43:00,
2013-10-18 06:53:00,56.0,46.0,29.80,NNW,335,0.0,0.0,70,0.00,,,0.03,,2013-10-18 10:53:00,
2013-10-18 07:12:00,55.0,45.0,29.81,NNW,335,0.0,0.0,70,0.00,,,0.03,,2013-10-18 11:12:00,
2013-10-18 07:22:00,55.0,45.0,29.82,NNW,335,0.0,0.0,70,0.00,,,0.03,,2013-10-18 11:22:00,
2013-10-18 07:42:00,55.0,46.0,29.83,NNW,335,0.0,0.0,71,0.00,,,0.03,,2013-10-18 11:42:00,
2013-10-18 07:52:00,54.0,45.0,29.83,NNW,335,0.0,0.0,72,0.00,,,0.03,,2013-10-18 11:52:00,
2013-10-18 08:12:00,54.0,45.0,29.83,NNW,335,0.0,0.0,72,0.00,,,0.03,,2013-10-18 12:12:00,
2013-10-18 08:22:00,54.0,45.0,29.85,NNW,335,0.0,0.0,72,0.00,,,0.03,,2013-10-18 12:22:00,
2013-10-18 08:42:00,54.0,45.0,29.85,NNW,335,0.0,0.0,72,0.00,,,0.03,,2013-10-18 12:42:00,
2013-10-18 08:52:00,54.0,45.0,29.86,NNW,335,0.0,0.0,71,0.00,,,0.03,,2013-10-18 12:52:00,
2013-10-18 09:11:00,55.0,45.0,29.87,NNW,335,0.0,0.0,70,0.00,,,0.03,,2013-10-18 13:11:00,
2013-10-18 09:22:00,55.0,45.0,29.87,NNW,335,0.0,0.0,68,0.00,,,0.03,,2013-10-18 13:22:00,
2013-10-18 09:42:00,55.0,45.0,29.87,NNW,335,0.0,0.0,68,0.00,,,-99.99,,2013-10-18 13:42:00,
2013-10-18 09:52:00,56.0,44.0,29.87,NNW,335,0.0,0.0,65,0.00,,,0.03,,2013-10-18 13:52:00,
2013-10-18 10:11:00,57.0,45.0,29.88,NNW,335,0.0,0.0,64,0.00,,,0.03,,2013-10-18 14:11:00,
2013-10-18 10:22:00,57.0,44.0,29.88,WNW,283,0.0,3.0,62,0.00,,,0.03,,2013-10-18 14:22:00,
2013-10-18 10:42:00,58.0,45.0,29.88,WNW,283,0.0,0.0,62,0.00,,,0.03,,2013-10-18 14:42:00,
2013-10-18 10:52:00,59.0,45.0,29.88,NW,316,0.0,0.0,59,0.00,,,0.03,,2013-10-18 14:52:00,
2013-10-18 11:11:00,59.0,45.0,29.88,NW,316,0.0,0.0,59,0.00,,,0.03,,2013-10-18 15:11:00,
2013-10-18 11:22:00,62.0,45.0,29.88,NW,316,0.0,0.0,54,0.00,,,0.03,,2013-10-18 15:22:00,
2013-10-18 11:43:00,63.0,44.0,29.89,NW,316,0.0,0.0,50,0.00,,,0.03,,2013-10-18 15:43:00,
2013-10-18 11:54:00,63.0,44.0,29.89,NW,316,0.0,0.0,49,0.00,,,0.03,,2013-10-18 15:54:00,
2013-10-18 12:13:00,63.0,44.0,29.89,NW,316,0.0,0.0,50,0.00,,,0.03,,2013-10-18 16:13:00,
2013-10-18 12:24:00,64.0,44.0,29.89,West,273,0.0,0.0,49,0.00,,,0.03,,2013-10-18 16:24:00,
2013-10-18 12:42:00,65.0,44.0,29.89,West,273,0.0,3.0,47,0.00,,,0.03,,2013-10-18 16:42:00,
2013-10-18 12:53:00,66.0,45.0,29.88,SW,231,0.0,0.0,46,0.00,,,0.03,,2013-10-18 16:53:00,
2013-10-18 13:12:00,66.0,43.0,29.88,SW,231,0.0,0.0,44,0.00,,,0.03,,2013-10-18 17:12:00,
2013-10-18 13:22:00,66.0,45.0,29.88,SW,231,0.0,0.0,47,0.00,,,0.03,,2013-10-18 17:22:00,
2013-10-18 13:42:00,67.0,43.0,29.88,SW,231,0.0,0.0,42,0.00,,,0.03,,2013-10-18 17:42:00,
2013-10-18 13:52:00,67.0,44.0,29.88,West,281,0.0,0.0,43,0.00,,,0.03,,2013-10-18 17:52:00,
2013-10-18 14:12:00,67.0,46.0,29.88,West,264,0.0,0.0,46,0.00,,,0.03,,2013-10-18 18:12:00,
2013-10-18 14:22:00,68.0,43.0,29.87,West,264,0.0,0.0,40,0.00,,,0.03,,2013-10-18 18:22:00,
2013-10-18 14:42:00,69.0,42.0,29.87,West,264,0.0,0.0,38,0.00,,,0.03,,2013-10-18 18:42:00,
2013-10-18 14:52:00,67.0,43.0,29.87,West,264,0.0,0.0,42,0.00,,,0.03,,2013-10-18 18:52:00,
2013-10-18 15:12:00,67.0,43.0,29.87,WNW,287,1.0,5.0,41,0.00,,,0.03,,2013-10-18 19:12:00,
2013-10-18 15:22:00,68.0,42.0,29.87,SSW,204,0.0,0.0,39,0.00,,,0.03,,2013-10-18 19:22:00,
2013-10-18 15:42:00,68.0,42.0,29.87,NW,314,0.0,0.0,39,0.00,,,0.03,,2013-10-18 19:42:00,
2013-10-18 15:52:00,68.0,42.0,29.87,NW,314,0.0,0.0,39,0.00,,,0.03,,2013-10-18 19:52:00,
2013-10-18 16:11:00,68.0,43.0,29.87,NW,314,0.0,0.0,41,0.00,,,0.03,,2013-10-18 20:11:00,
2013-10-18 16:22:00,67.0,43.0,29.87,NW,314,0.0,0.0,42,0.00,,,0.03,,2013-10-18 20:22:00,
2013-10-18 16:42:00,67.0,43.0,29.87,NW,314,0.0,0.0,41,0.00,,,0.03,,2013-10-18 20:42:00,
2013-10-18 16:52:00,67.0,43.0,29.87,NW,314,0.0,0.0,41,0.00,,,0.03,,2013-10-18 20:52:00,
2013-10-18 17:12:00,67.0,42.0,29.87,NW,314,0.0,0.0,40,0.00,,,0.03,,2013-10-18 21:12:00,
2013-10-18 17:22:00,66.0,42.0,29.87,NW,314,0.0,0.0,41,0.00,,,0.03,,2013-10-18 21:22:00,
2013-10-18 17:44:00,67.0,43.0,29.87,NW,314,0.0,0.0,41,0.00,,,0.03,,2013-10-18 21:44:00,
2013-10-18 17:54:00,65.0,42.0,29.88,NW,314,0.0,0.0,43,0.00,,,0.03,,2013-10-18 21:54:00,
2013-10-18 18:13:00,64.0,42.0,29.89,NW,314,0.0,0.0,44,0.00,,,0.03,,2013-10-18 22:13:00,
2013-10-18 18:24:00,62.0,42.0,29.90,NW,314,0.0,0.0,47,0.00,,,0.03,,2013-10-18 22:24:00,
2013-10-18 18:43:00,61.0,42.0,29.90,NW,314,0.0,0.0,49,0.00,,,0.03,,2013-10-18 22:43:00,
2013-10-18 18:54:00,61.0,42.0,29.91,NW,314,0.0,0.0,50,0.00,,,0.03,,2013-10-18 22:54:00,
2013-10-18 19:12:00,60.0,42.0,29.92,NW,314,0.0,0.0,51,0.00,,,0.03,,2013-10-18 23:12:00,
2013-10-18 19:23:00,58.0,43.0,29.93,NW,314,0.0,0.0,57,0.00,,,0.03,,2013-10-18 23:23:00,
2013-10-18 19:43:00,57.0,43.0,29.93,NW,314,0.0,0.0,59,0.00,,,0.03,,2013-10-18 23:43:00,
2013-10-18 19:53:00,56.0,44.0,29.94,NW,314,0.0,0.0,63,0.00,,,0.03,,2013-10-18 23:53:00,
2013-10-18 20:12:00,54.0,43.0,29.95,NW,314,0.0,0.0,67,0.00,,,0.03,,2013-10-19 00:12:00,
2013-10-18 20:22:00,54.0,44.0,29.95,NW,314,0.0,0.0,69,0.00,,,0.03,,2013-10-19 00:22:00,
2013-10-18 20:42:00,53.0,44.0,29.95,NW,314,0.0,0.0,71,0.00,,,0.03,,2013-10-19 00:42:00,
2013-10-18 20:52:00,52.0,43.0,29.96,NW,314,0.0,0.0,72,0.00,,,0.02,,2013-10-19 00:52:00,
2013-10-18 21:12:00,52.0,44.0,29.96,NW,314,0.0,0.0,74,0.00,,,0.02,,2013-10-19 01:12:00,
2013-10-18 21:22:00,52.0,44.0,29.96,NW,314,0.0,0.0,75,0.00,,,0.02,,2013-10-19 01:22:00,
2013-10-18 21:42:00,51.0,44.0,29.96,NW,314,0.0,0.0,76,0.00,,,0.02,,2013-10-19 01:42:00,
2013-10-18 21:53:00,50.0,43.0,29.97,NW,314,0.0,0.0,78,0.00,,,0.02,,2013-10-19 01:53:00,
2013-10-18 22:12:00,50.0,44.0,29.97,NW,314,0.0,0.0,79,0.00,,,0.02,,2013-10-19 02:12:00,
2013-10-18 22:22:00,50.0,43.0,29.98,NW,314,0.0,0.0,78,0.00,,,-99.99,,2013-10-19 02:22:00,
2013-10-18 22:42:00,50.0,44.0,29.98,NW,314,0.0,0.0,80,0.00,,,0.02,,2013-10-19 02:42:00,
2013-10-18 22:52:00,50.0,44.0,29.98,NW,314,0.0,0.0,80,0.00,,,0.02,,2013-10-19 02:52:00,
2013-10-18 23:12:00,49.0,43.0,29.98,NW,314,0.0,0.0,80,0.00,,,0.02,,2013-10-19 03:12:00,
2013-10-18 23:23:00,49.0,43.0,29.99,NW,314,0.0,0.0,81,0.00,,,0.02,,2013-10-19 03:23:00,
2013-10-18 23:44:00,49.0,44.0,29.99,NW,314,0.0,0.0,82,0.00,,,0.02,,2013-10-19 03:44:00,
2013-10-18 23:55:00,48.0,43.0,29.99,NW,314,0.0,0.0,83,0.00,,,0.02,,2013-10-19 03:55:00,